This demonstration page uses our WeatherBlox Daily Observations layout. Learn more.

Left ArrowRight Arrow

Hourly Observations for June 25, 2017

Temp ( °F °C ) Dew Point ( °F °C ) Humidity (%) Winds ( mph kmh ) Pressure ( in mb ) Visibility ( mi km ) Precip ( " mm )
12:53 am 00:53 Clear 73 22.8 71 21.7 94 94 Calm 30.06 1018 10 16 0.00 0.00
1:53 am 01:53 Clear 73 22.8 69 20.6 87 87 Calm 30.06 1018 10 16 0.00 0.00
2:53 am 02:53 Clear 71 21.7 67 19.4 87 87 Calm 30.05 1018 10 16 0.00 0.00
3:53 am 03:53 Clear 69 20.6 66 18.9 90 90 Calm 30.05 1018 10 16 0.00 0.00
4:53 am 04:53 Clear 69 20.6 66 18.9 90 90 NNW 5 7 30.06 1018 10 16 0.00 0.00
5:53 am 05:53 Clear 68 20 65 18.3 90 90 NNW 3 6 30.06 1018 10 16 0.00 0.00
6:53 am 06:53 Sunny 68 20 65 18.3 90 90 NW 5 7 30.08 1019 10 16 0.00 0.00
7:53 am 07:53 Sunny 68 20 64 17.8 87 87 VRB 5 7 30.10 1019 10 16 0.00 0.00
8:53 am 08:53 Sunny 68 20 64 17.8 87 87 NNW 5 7 30.13 1020 10 16 0.00 0.00
9:53 am 09:53 Sunny 70 21.1 64 17.8 82 82 NNW 8 13 30.13 1020 10 16 0.00 0.00
10:53 am 10:53 Sunny 73 22.8 65 18.3 76 76 N 6 9 30.13 1020 10 16 0.00 0.00
11:53 am 11:53 Sunny 74 23.3 64 17.8 71 71 NNW 8 13 30.14 1021 10 16 0.00 0.00
12:53 pm 12:53 Sunny 75 23.9 63 17.2 66 66 NNW 6 9 30.14 1021 10 16 0.00 0.00
1:53 pm 13:53 Sunny 76 24.4 63 17.2 64 64 NW 6 9 30.13 1020 10 16 0.00 0.00
2:53 pm 14:53 Sunny 76 24.4 64 17.8 67 67 NW 12 19 30.12 1020 10 16 0.00 0.00
3:53 pm 15:53 Sunny 78 25.6 61 16.1 56 56 WNW 12 19 30.10 1019 10 16 0.00 0.00
4:53 pm 16:53 Sunny 79 26.1 61 16.1 54 54 NW 10 17 30.09 1019 10 16 0.00 0.00
5:53 pm 17:53 Sunny 76 24.4 62 16.7 62 62 NW 14 22 30.11 1020 10 16 0.00 0.00
6:53 pm 18:53 Sunny 75 23.9 61 16.1 62 62 undefined N/A 30.12 1020 10 16 0.00 0.00
7:53 pm 19:53 Sunny 73 22.8 60 15.6 64 64 NNW 6 9 30.13 1020 10 16 0.00 0.00
8:53 pm 20:53 Clear 71 21.7 62 16.7 73 73 NNW 3 6 30.13 1020 10 16 0.00 0.00
9:53 pm 21:53 Clear 70 21.1 63 17.2 79 79 NW 5 7 30.13 1020 10 16 0.00 0.00
10:53 pm 22:53 Clear 69 20.6 63 17.2 81 81 NNW 5 7 30.14 1021 10 16 0.00 0.00
11:53 pm 23:53 Clear 68 20 63 17.2 84 84 VRB 5 7 30.14 1021 10 16 0.00 0.00

Powered by AerisWeather